Timestamp (UTC),Temp / °C,Chill / °C,HIndex / °C,Humid%,Dewpt / °C,Wind / ms¯¹,HiWind / ms¯¹,Winddir / °,Rain / mm,RainRate / mmhr¯¹,Pressure / hPa,InsideTemp / °C,InsideHumid%,Radiation / Wm¯²,UV
2015-07-18 00:00:00,13.3,13.3,13.3,75.0,9.0,3.1,8.0,202.5,0.0,0.0,1002.2,24.3,42.0,0,0
2015-07-18 00:05:00,13.3,13.3,13.3,75.0,8.9,4.0,8.0,225,0.0,0.0,1002.4,24.3,42.0,0,0
2015-07-18 00:10:00,13.3,13.3,13.3,75.0,8.9,3.6,8.5,202.5,0.0,0.0,1002.3,24.3,43.0,0,0
2015-07-18 00:15:00,13.3,13.3,13.3,75.0,8.9,3.1,7.2,202.5,0.0,0.0,1002.3,24.2,43.0,0,0
2015-07-18 00:20:00,13.3,13.3,13.3,75.0,8.9,3.6,6.3,202.5,0.0,0.0,1002.3,24.2,43.0,0,0
2015-07-18 00:25:00,13.2,13.2,13.2,75.0,8.9,3.1,5.8,225,0.0,0.0,1002.3,24.2,43.0,0,0
2015-07-18 00:30:00,13.2,13.2,13.2,75.0,8.8,2.7,5.8,202.5,0.0,0.0,1002.4,24.2,43.0,0,0
2015-07-18 00:35:00,13.2,13.2,13.2,75.0,8.8,4.0,7.2,225,0.0,0.0,1002.4,24.2,43.0,0,0
2015-07-18 00:40:00,13.2,13.2,13.2,75.0,8.8,3.1,7.2,202.5,0.0,0.0,1002.5,24.2,43.0,0,0
2015-07-18 00:45:00,13.1,13.1,13.1,76.0,9.0,2.7,6.7,225,0.0,0.0,1002.5,24.2,43.0,0,0
2015-07-18 00:50:00,13.1,13.1,13.1,76.0,8.9,2.2,4.9,202.5,0.0,0.0,1002.6,24.2,43.0,0,0
2015-07-18 00:55:00,13.1,13.1,13.1,76.0,8.9,4.0,7.2,225,0.0,0.0,1002.7,24.2,43.0,0,0
2015-07-18 01:00:00,13.1,13.1,13.1,76.0,8.9,3.6,7.2,225,0.0,0.0,1002.6,24.2,43.0,0,0
2015-07-18 01:05:00,13.0,13.0,13.0,76.0,8.9,2.7,5.4,225,0.0,0.0,1002.7,24.2,43.0,0,0
2015-07-18 01:10:00,12.9,12.9,12.9,76.0,8.8,3.1,5.8,225,0.0,0.0,1002.6,24.2,43.0,0,0
2015-07-18 01:15:00,12.9,12.9,12.9,76.0,8.8,2.7,8.0,225,0.0,0.0,1002.5,24.2,43.0,0,0
2015-07-18 01:20:00,12.9,12.9,12.9,76.0,8.8,3.6,6.3,225,0.0,0.0,1002.6,24.2,43.0,0,0
2015-07-18 01:25:00,12.9,12.9,12.9,76.0,8.8,2.7,5.8,225,0.0,0.0,1002.6,24.2,43.0,0,0
2015-07-18 01:30:00,12.9,12.9,12.9,76.0,8.8,2.7,7.2,225,0.0,0.0,1002.6,24.2,43.0,0,0
2015-07-18 01:35:00,12.8,12.8,12.8,76.0,8.7,2.7,7.2,202.5,0.0,0.0,1002.7,24.2,43.0,0,0
2015-07-18 01:40:00,12.8,12.8,12.8,76.0,8.7,4.0,8.0,225,0.0,0.0,1002.7,24.2,43.0,0,0
2015-07-18 01:45:00,12.7,12.7,12.7,76.0,8.6,2.2,6.3,225,0.0,0.0,1002.8,24.2,43.0,0,0
2015-07-18 01:50:00,12.7,12.7,12.7,76.0,8.5,2.2,4.9,202.5,0.0,0.0,1002.7,24.2,43.0,0,0
2015-07-18 01:55:00,12.6,12.6,12.6,76.0,8.5,2.2,4.9,202.5,0.0,0.0,1002.8,24.2,43.0,0,0
2015-07-18 02:00:00,12.5,12.5,12.5,76.0,8.4,1.8,5.4,202.5,0.0,0.0,1002.8,24.2,43.0,0,0
2015-07-18 02:05:00,12.4,12.4,12.4,76.0,8.3,1.8,4.5,202.5,0.0,0.0,1002.8,24.2,43.0,0,0
2015-07-18 02:10:00,12.4,12.4,12.4,75.0,8.1,2.2,4.5,202.5,0.0,0.0,1002.8,24.2,43.0,0,0
2015-07-18 02:15:00,12.4,12.4,12.4,75.0,8.1,1.8,4.5,225,0.0,0.0,1002.9,24.2,43.0,0,0
2015-07-18 02:20:00,12.4,12.4,12.4,75.0,8.1,1.8,5.4,202.5,0.0,0.0,1002.9,24.2,43.0,0,0
2015-07-18 02:25:00,12.4,12.4,12.4,74.0,7.9,1.3,3.6,202.5,0.0,0.0,1002.9,24.2,43.0,0,0
2015-07-18 02:30:00,12.4,12.4,12.4,74.0,7.9,1.8,4.0,202.5,0.0,0.0,1002.8,24.2,43.0,0,0
2015-07-18 02:35:00,12.4,12.4,12.4,74.0,7.9,2.2,4.9,202.5,0.0,0.0,1002.9,24.1,43.0,0,0
2015-07-18 02:40:00,12.4,12.4,12.4,74.0,7.9,1.8,4.9,202.5,0.0,0.0,1002.8,24.1,43.0,0,0
2015-07-18 02:45:00,12.4,12.4,12.4,73.0,7.7,1.3,3.6,225,0.0,0.0,1002.8,24.1,43.0,0,0
2015-07-18 02:50:00,12.3,12.3,12.3,73.0,7.6,0.9,4.0,202.5,0.0,0.0,1002.9,24.1,43.0,0,0
2015-07-18 02:55:00,12.3,12.3,12.3,73.0,7.6,0.9,3.6,180,0.0,0.0,1002.9,24.1,43.0,0,0
2015-07-18 03:00:00,12.3,12.3,12.3,73.0,7.6,1.3,4.0,202.5,0.0,0.0,1003.0,24.1,43.0,0,0
2015-07-18 03:05:00,12.3,12.3,12.3,73.0,7.6,1.8,4.5,202.5,0.0,0.0,1003.1,24.1,43.0,0,0
2015-07-18 03:10:00,12.3,12.3,12.3,73.0,7.6,0.9,3.1,202.5,0.0,0.0,1003.1,24.1,43.0,0,0
2015-07-18 03:15:00,12.3,12.3,12.3,73.0,7.6,1.3,4.5,180,0.0,0.0,1003.1,24.1,43.0,0,0
2015-07-18 03:20:00,12.3,12.3,12.3,73.0,7.6,0.9,2.7,157.5,0.0,0.0,1003.2,24.1,43.0,0,0
2015-07-18 03:25:00,12.3,12.3,12.3,73.0,7.6,1.3,3.1,157.5,0.0,0.0,1003.2,24.1,43.0,0,0
2015-07-18 03:30:00,12.2,12.2,12.2,73.0,7.5,0.9,3.6,202.5,0.0,0.0,1003.2,24.1,43.0,0,0
2015-07-18 03:35:00,12.2,12.2,12.2,73.0,7.5,1.3,2.7,180,0.0,0.0,1003.2,24.1,43.0,0,0
2015-07-18 03:40:00,12.1,12.1,12.1,73.0,7.4,0.9,2.7,180,0.0,0.0,1003.2,24.1,43.0,0,0
2015-07-18 03:45:00,12.0,12.0,12.0,74.0,7.5,0.4,3.1,202.5,0.0,0.0,1003.2,24.1,43.0,0,0
2015-07-18 03:50:00,11.9,11.9,11.9,74.0,7.5,0.4,2.7,180,0.0,0.0,1003.2,24.1,43.0,0,0
2015-07-18 03:55:00,11.8,11.8,11.8,74.0,7.3,0.9,4.0,180,0.0,0.0,1003.1,24.1,43.0,0,0
2015-07-18 04:00:00,11.8,11.8,11.8,74.0,7.3,1.3,4.0,202.5,0.0,0.0,1003.2,24.1,43.0,0,0
2015-07-18 04:05:00,11.9,11.9,11.9,74.0,7.4,1.8,4.0,202.5,0.0,0.0,1003.3,24.2,43.0,2,0
2015-07-18 04:10:00,11.8,11.8,11.8,74.0,7.3,1.3,4.0,180,0.0,0.0,1003.2,24.2,43.0,5,0
2015-07-18 04:15:00,11.8,11.8,11.8,74.0,7.3,1.3,4.0,180,0.0,0.0,1003.3,24.2,43.0,8,0
2015-07-18 04:20:00,11.9,11.9,11.9,74.0,7.4,1.3,3.6,180,0.0,0.0,1003.4,24.2,43.0,10,0
2015-07-18 04:25:00,11.8,11.8,11.8,74.0,7.3,1.3,3.6,180,0.0,0.0,1003.4,24.2,43.0,10,0
2015-07-18 04:30:00,11.8,11.8,11.8,74.0,7.3,1.3,3.6,202.5,0.0,0.0,1003.4,24.2,43.0,14,0
2015-07-18 04:35:00,11.8,11.8,11.8,74.0,7.3,1.3,4.9,202.5,0.0,0.0,1003.5,24.2,43.0,16,0
2015-07-18 04:40:00,11.9,11.9,11.9,73.0,7.2,1.8,5.8,202.5,0.0,0.0,1003.4,24.2,43.0,17,0
2015-07-18 04:45:00,12.0,12.0,12.0,73.0,7.3,2.7,6.3,202.5,0.0,0.0,1003.4,24.2,43.0,18,0
2015-07-18 04:50:00,12.1,12.1,12.1,73.0,7.4,2.7,6.3,225,0.0,0.0,1003.4,24.2,43.0,21,0
2015-07-18 04:55:00,12.2,12.2,12.2,73.0,7.5,2.7,6.3,202.5,0.0,0.0,1003.5,24.3,43.0,28,0
2015-07-18 05:00:00,12.3,12.3,12.3,72.0,7.4,2.7,5.4,225,0.0,0.0,1003.5,24.3,43.0,34,0
2015-07-18 05:05:00,12.3,12.3,12.3,72.0,7.4,2.2,6.3,225,0.0,0.0,1003.5,24.3,43.0,40,0
2015-07-18 05:10:00,12.4,12.4,12.4,73.0,7.7,2.2,4.5,202.5,0.0,0.0,1003.6,24.3,43.0,42,0
2015-07-18 05:15:00,12.6,12.6,12.6,72.0,7.6,2.2,7.2,202.5,0.0,0.0,1003.6,24.3,42.0,62,0
2015-07-18 05:20:00,12.7,12.7,12.7,72.0,7.7,3.1,7.2,202.5,0.0,0.0,1003.6,24.3,42.0,66,0
2015-07-18 05:25:00,12.7,12.7,12.7,72.0,7.8,2.7,7.2,225,0.0,0.0,1003.7,24.3,42.0,53,0
2015-07-18 05:30:00,12.7,12.7,12.7,72.0,7.8,3.1,6.7,225,0.0,0.0,1003.7,24.2,41.0,91,0
2015-07-18 05:35:00,12.8,12.8,12.8,72.0,7.9,2.2,4.9,202.5,0.0,0.0,1003.7,24.2,41.0,119,0
2015-07-18 05:40:00,12.8,12.8,12.8,72.0,7.9,4.0,8.9,225,0.0,0.0,1003.6,24.1,41.0,125,0
2015-07-18 05:45:00,12.9,12.9,12.9,72.0,8.0,2.7,5.4,225,0.0,0.0,1003.6,24.1,41.0,136,0
2015-07-18 05:50:00,13.0,13.0,13.0,72.0,8.1,2.2,4.9,225,0.0,0.0,1003.7,24.0,41.0,155,0
2015-07-18 05:55:00,13.1,13.1,13.1,72.0,8.1,3.6,8.0,225,0.0,0.0,1003.8,24.0,41.0,158,0
2015-07-18 06:00:00,13.1,13.1,13.1,72.0,8.2,2.2,5.8,202.5,0.0,0.0,1003.9,23.9,41.0,111,0
2015-07-18 06:05:00,13.1,13.1,13.1,72.0,8.2,2.7,6.3,202.5,0.0,0.0,1003.8,23.9,41.0,132,0.1
2015-07-18 06:10:00,13.2,13.2,13.2,72.0,8.2,2.7,6.3,225,0.0,0.0,1003.8,23.9,40.0,192,0.3
2015-07-18 06:15:00,13.3,13.3,13.3,71.0,8.2,3.1,5.8,225,0.0,0.0,1003.8,23.8,40.0,287,0.4
2015-07-18 06:20:00,13.3,13.3,13.3,71.0,8.2,3.6,6.7,225,0.0,0.0,1003.8,23.8,40.0,204,0.4
2015-07-18 06:25:00,13.4,13.4,13.4,70.0,8.0,4.0,9.4,225,0.0,0.0,1003.9,23.8,40.0,230,0.5
2015-07-18 06:30:00,13.4,13.4,13.4,71.0,8.2,3.1,5.4,225,0.0,0.0,1003.8,23.8,40.0,288,0.7
2015-07-18 06:35:00,13.7,13.7,13.7,70.0,8.3,1.8,5.4,202.5,0.0,0.0,1003.8,23.7,40.0,318,0.7
2015-07-18 06:40:00,13.9,13.9,13.9,70.0,8.5,2.2,4.0,202.5,0.0,0.0,1003.7,23.7,40.0,297,0.8
2015-07-18 06:45:00,13.9,13.9,13.9,69.0,8.3,3.6,8.9,202.5,0.0,0.0,1003.7,23.7,40.0,285,0.8
2015-07-18 06:50:00,14.2,14.2,14.2,69.0,8.6,2.2,4.5,202.5,0.0,0.0,1003.8,23.7,40.0,301,0.8
2015-07-18 06:55:00,14.2,14.2,14.2,69.0,8.6,3.1,5.8,202.5,0.0,0.0,1003.7,23.6,40.0,323,0.9
2015-07-18 07:00:00,14.2,14.2,14.2,68.0,8.3,3.6,8.5,202.5,0.0,0.0,1003.7,23.6,40.0,312,1
2015-07-18 07:05:00,14.3,14.3,14.3,68.0,8.5,2.7,10.3,202.5,0.0,0.0,1003.8,23.5,40.0,334,1.1
2015-07-18 07:10:00,14.3,14.3,14.3,67.0,8.2,4.0,8.0,225,0.0,0.0,1003.8,23.5,40.0,361,1.2
2015-07-18 07:15:00,14.4,14.4,14.4,67.0,8.3,3.6,6.7,225,0.0,0.0,1003.8,23.4,40.0,382,1.2
2015-07-18 07:20:00,14.6,14.6,14.6,67.0,8.5,2.7,5.8,202.5,0.0,0.0,1003.8,23.4,40.0,398,1.3
2015-07-18 07:25:00,14.5,14.5,14.5,66.0,8.2,4.5,8.5,225,0.0,0.0,1003.8,23.4,40.0,362,1.4
2015-07-18 07:30:00,14.7,14.7,14.7,66.0,8.4,3.6,8.9,202.5,0.0,0.0,1003.9,23.4,40.0,409,1.5
2015-07-18 07:35:00,15.0,15.0,15.0,65.0,8.5,2.2,5.8,225,0.0,0.0,1003.8,23.4,40.0,452,1.7
2015-07-18 07:40:00,15.0,15.0,15.0,65.0,8.5,3.1,8.5,225,0.0,0.0,1003.9,23.4,40.0,480,1.4
2015-07-18 07:45:00,14.8,14.8,14.8,65.0,8.3,4.5,12.1,225,0.0,0.0,1003.9,23.4,40.0,251,1.3
2015-07-18 07:50:00,15.0,15.0,15.0,65.0,8.5,2.7,5.8,225,0.0,0.0,1003.9,23.4,40.0,626,1.9
2015-07-18 07:55:00,15.4,15.4,15.4,64.0,8.7,2.7,6.3,202.5,0.0,0.0,1003.9,23.5,40.0,251,1.1
2015-07-18 08:00:00,15.1,15.1,15.1,64.0,8.3,3.6,8.9,225,0.0,0.0,1004.0,23.5,40.0,293,1.2
2015-07-18 08:05:00,15.0,15.0,15.0,64.0,8.2,4.5,10.3,225,0.0,0.0,1003.9,23.6,40.0,262,1.6
2015-07-18 08:10:00,15.0,15.0,15.0,64.0,8.2,3.6,8.5,225,0.0,0.0,1004.0,23.6,40.0,397,2
2015-07-18 08:15:00,15.6,15.6,15.6,64.0,8.8,1.8,5.4,202.5,0.0,0.0,1003.9,23.6,40.0,390,1.9
2015-07-18 08:20:00,15.7,15.7,15.7,62.0,8.4,2.2,4.9,225,0.0,0.0,1003.8,23.6,39.0,200,0.9
2015-07-18 08:25:00,15.6,15.6,15.6,62.0,8.3,3.1,6.7,225,0.0,0.0,1003.9,23.6,39.0,265,1.6
2015-07-18 08:30:00,15.6,15.6,15.6,61.0,8.1,2.7,7.2,202.5,0.0,0.0,1003.8,23.6,39.0,139,1.1
2015-07-18 08:35:00,15.4,15.4,15.4,62.0,8.1,2.7,6.7,225,0.0,0.0,1003.9,23.6,39.0,109,0
2015-07-18 08:40:00,15.2,15.2,15.2,62.0,8.0,3.1,7.2,202.5,0.0,0.0,1004.0,23.6,39.0,138,1.2
2015-07-18 08:45:00,15.4,15.4,15.4,62.0,8.1,2.7,7.2,292.5,0.0,0.0,1004.0,23.6,39.0,332,2.8
2015-07-18 08:50:00,15.9,15.9,15.9,61.0,8.4,3.1,8.9,225,0.0,0.0,1004.1,23.6,39.0,683,3.3
2015-07-18 08:55:00,16.3,16.3,16.3,60.0,8.5,2.2,5.8,202.5,0.0,0.0,1004.1,23.6,39.0,276,2.7
2015-07-18 09:00:00,16.7,16.7,16.7,59.0,8.7,3.1,10.3,225,0.0,0.0,1004.0,23.7,39.0,775,3.5
2015-07-18 09:05:00,16.6,16.6,16.6,59.0,8.5,3.6,9.4,225,0.0,0.0,1004.2,23.7,39.0,329,2.2
2015-07-18 09:10:00,16.3,16.3,16.3,60.0,8.5,3.1,6.7,225,0.0,0.0,1004.2,23.7,38.0,280,1.6
2015-07-18 09:15:00,16.1,16.1,16.1,61.0,8.6,2.7,6.7,225,0.0,0.0,1004.3,23.7,38.0,251,1.5
2015-07-18 09:20:00,16.2,16.2,16.2,60.0,8.4,2.2,5.4,202.5,0.0,0.0,1004.3,23.7,38.0,238,1.8
2015-07-18 09:25:00,16.0,16.0,16.0,60.0,8.2,2.7,5.8,202.5,0.0,0.0,1004.2,23.7,38.0,164,1.2
2015-07-18 09:30:00,15.8,15.8,15.8,61.0,8.3,2.2,4.9,225,0.0,0.0,1004.3,23.7,38.0,209,1.6
2015-07-18 09:35:00,15.9,15.9,15.9,61.0,8.4,2.2,6.3,202.5,0.0,0.0,1004.3,23.8,38.0,296,2.4
2015-07-18 09:40:00,16.2,16.2,16.2,59.0,8.1,2.7,5.8,225,0.0,0.0,1004.2,23.8,38.0,323,2.1
2015-07-18 09:45:00,16.3,16.3,16.3,58.0,8.0,2.2,5.4,270,0.0,0.0,1004.3,23.9,38.0,262,1.5
2015-07-18 09:50:00,16.2,16.2,16.2,58.0,7.9,3.1,8.5,202.5,0.0,0.0,1004.4,23.8,38.0,202,1.2
2015-07-18 09:55:00,16.2,16.2,16.2,59.0,8.2,2.7,7.2,247.5,0.0,0.0,1004.5,23.8,38.0,192,1.2
2015-07-18 10:00:00,16.3,16.3,16.3,59.0,8.2,3.1,6.7,225,0.0,0.0,1004.5,23.8,38.0,266,1.9
2015-07-18 10:05:00,16.2,16.2,16.2,58.0,7.9,3.6,8.9,292.5,0.0,0.0,1004.6,23.8,38.0,259,2.1
2015-07-18 10:10:00,16.3,16.3,16.3,58.0,8.0,2.7,6.3,225,0.0,0.0,1004.5,23.8,38.0,297,2.8
2015-07-18 10:15:00,16.4,16.4,16.4,57.0,7.9,3.6,8.0,225,0.0,0.0,1004.6,23.8,38.0,279,2.9
2015-07-18 10:20:00,16.5,16.5,16.5,58.0,8.2,4.0,12.1,225,0.0,0.0,1004.6,23.9,38.0,336,3
2015-07-18 10:25:00,16.6,16.6,16.6,57.0,8.0,4.5,11.6,225,0.0,0.0,1004.7,23.9,37.0,357,3.4
2015-07-18 10:30:00,16.8,16.8,16.8,56.0,7.9,4.5,11.6,202.5,0.0,0.0,1004.7,23.9,37.0,484,4.3
2015-07-18 10:35:00,16.8,16.8,16.8,57.0,8.3,2.7,8.0,225,0.0,0.0,1004.6,23.9,37.0,452,4.3
2015-07-18 10:40:00,17.6,17.6,17.6,55.0,8.4,3.1,8.0,292.5,0.0,0.0,1004.7,23.9,37.0,995,5.5
2015-07-18 10:45:00,17.8,17.8,17.8,53.0,8.1,3.6,8.0,225,0.0,0.0,1004.7,23.9,37.0,761,5
2015-07-18 10:50:00,18.0,18.0,18.0,54.0,8.5,2.7,6.3,247.5,0.0,0.0,1004.7,23.9,37.0,875,4.7
2015-07-18 10:55:00,17.7,17.7,17.7,53.0,8.0,4.0,11.2,270,0.0,0.0,1004.6,23.9,37.0,444,4.3
2015-07-18 11:00:00,18.0,18.0,18.0,52.0,8.0,3.6,8.5,225,0.0,0.0,1004.6,23.9,37.0,711,5.9
2015-07-18 11:05:00,18.5,18.5,18.5,51.0,8.2,3.6,9.4,247.5,0.0,0.0,1004.6,23.9,37.0,741,4.7
2015-07-18 11:10:00,18.0,18.0,18.0,49.0,7.1,4.0,11.2,202.5,0.0,0.0,1004.5,23.9,36.0,308,3.8
2015-07-18 11:15:00,18.6,18.6,18.6,49.0,7.6,3.1,7.2,225,0.0,0.0,1004.6,23.9,36.0,939,5.9
2015-07-18 11:20:00,18.4,18.4,18.4,49.0,7.5,4.9,11.2,225,0.0,0.0,1004.6,23.9,36.0,498,4.5
2015-07-18 11:25:00,18.3,18.3,18.3,48.0,7.1,4.9,9.8,270,0.0,0.0,1004.6,23.9,35.0,411,5.4
2015-07-18 11:30:00,18.5,18.5,18.5,48.0,7.3,3.6,8.9,225,0.0,0.0,1004.6,23.8,35.0,848,7
2015-07-18 11:35:00,18.8,18.8,18.8,48.0,7.6,2.7,7.2,292.5,0.0,0.0,1004.6,23.8,35.0,494,3.7
2015-07-18 11:40:00,18.8,18.8,18.8,48.0,7.6,3.1,9.8,225,0.0,0.0,1004.6,23.9,35.0,584,4.9
2015-07-18 11:45:00,18.7,18.7,18.7,49.0,7.8,3.1,9.4,225,0.0,0.0,1004.6,24.0,36.0,386,3.7
2015-07-18 11:50:00,18.6,18.6,18.6,48.0,7.3,2.7,9.8,225,0.0,0.0,1004.6,24.1,35.0,386,3.2
2015-07-18 11:55:00,18.7,18.7,18.7,47.0,7.2,4.0,12.5,225,0.0,0.0,1004.8,24.1,35.0,498,5.3
2015-07-18 12:00:00,18.3,18.3,18.3,48.0,7.1,3.6,8.9,225,0.0,0.0,1004.8,24.2,35.0,359,3.6
2015-07-18 12:05:00,18.3,18.3,18.3,48.0,7.1,4.0,8.9,247.5,0.0,0.0,1004.9,24.2,34.0,698,5.5
2015-07-18 12:10:00,18.1,18.1,18.1,48.0,6.9,4.0,9.4,247.5,0.0,0.0,1004.9,24.3,34.0,320,2.7
2015-07-18 12:15:00,17.9,17.9,17.9,49.0,7.0,3.6,9.8,247.5,0.0,0.0,1004.9,24.3,34.0,410,3.5
2015-07-18 12:20:00,18.2,18.2,18.2,49.0,7.3,3.6,9.4,225,0.0,0.0,1005.0,24.3,34.0,447,3.9
2015-07-18 12:25:00,18.3,18.3,18.3,49.0,7.4,2.7,7.2,202.5,0.0,0.0,1004.9,24.4,34.0,432,3.6
2015-07-18 12:30:00,18.6,18.6,18.6,49.0,7.6,2.7,6.7,247.5,0.0,0.0,1005.0,24.5,34.0,486,4.6
2015-07-18 12:35:00,18.6,18.6,18.6,48.0,7.4,4.0,9.4,202.5,0.0,0.0,1004.9,24.5,34.0,461,4.7
2015-07-18 12:40:00,18.7,18.7,18.7,49.0,7.7,3.6,7.2,225,0.0,0.0,1004.9,24.6,34.0,481,4.4
2015-07-18 12:45:00,18.6,18.6,18.6,50.0,8.0,3.1,6.3,270,0.0,0.0,1004.9,24.6,34.0,357,3.7
2015-07-18 12:50:00,19.1,19.1,19.1,50.0,8.4,2.7,6.7,202.5,0.0,0.0,1004.8,24.6,34.0,377,4.6
2015-07-18 12:55:00,18.9,18.9,18.9,50.0,8.3,2.7,8.0,247.5,0.0,0.0,1004.9,24.6,34.0,206,2
2015-07-18 13:00:00,18.5,18.5,18.5,51.0,8.2,2.7,6.3,225,0.0,0.0,1004.9,24.6,34.0,195,1.3
2015-07-18 13:05:00,18.3,18.3,18.3,52.0,8.3,2.2,6.3,270,0.0,0.0,1004.9,24.5,35.0,315,2.5
2015-07-18 13:10:00,18.7,18.7,18.7,52.0,8.6,2.2,6.3,202.5,0.0,0.0,1004.8,24.5,35.0,395,3.6
2015-07-18 13:15:00,18.8,18.8,18.8,52.0,8.8,2.2,5.4,225,0.0,0.0,1004.8,24.6,35.0,385,3.1
2015-07-18 13:20:00,19.0,19.0,19.0,52.0,8.9,2.7,8.0,180,0.0,0.0,1004.7,24.6,35.0,517,4.1
2015-07-18 13:25:00,19.3,19.3,19.3,51.0,8.9,2.2,7.2,225,0.0,0.0,1004.7,24.7,35.0,329,3.1
2015-07-18 13:30:00,18.8,18.8,18.8,52.0,8.8,3.1,8.0,225,0.0,0.0,1004.7,24.7,35.0,273,2.1
2015-07-18 13:35:00,18.6,18.6,18.6,53.0,8.8,3.1,6.7,247.5,0.0,0.0,1004.6,24.6,35.0,376,2.9
2015-07-18 13:40:00,18.5,18.5,18.5,54.0,9.0,3.6,8.5,225,0.0,0.0,1004.7,24.7,35.0,307,2.5
2015-07-18 13:45:00,18.4,18.4,18.4,53.0,8.7,3.6,8.5,225,0.0,0.0,1004.7,24.7,35.0,251,1.7
2015-07-18 13:50:00,18.4,18.4,18.4,54.0,9.0,3.1,8.5,202.5,0.0,0.0,1004.7,24.7,35.0,326,2.4
2015-07-18 13:55:00,18.5,18.5,18.5,53.0,8.7,3.1,8.0,202.5,0.0,0.0,1004.7,24.7,36.0,284,2
2015-07-18 14:00:00,18.7,18.7,18.7,54.0,9.2,2.7,5.8,225,0.0,0.0,1004.7,24.7,36.0,360,2.5
2015-07-18 14:05:00,18.8,18.8,18.8,54.0,9.3,3.6,7.2,225,0.0,0.0,1004.5,24.7,36.0,291,2.1
2015-07-18 14:10:00,18.8,18.8,18.8,55.0,9.5,2.2,6.3,225,0.0,0.0,1004.6,24.8,36.0,269,1.8
2015-07-18 14:15:00,18.7,18.7,18.7,54.0,9.2,2.2,5.4,270,0.0,0.0,1004.6,24.8,36.0,245,1.6
2015-07-18 14:20:00,18.6,18.6,18.6,55.0,9.4,3.6,7.2,225,0.0,0.0,1004.6,24.8,36.0,218,1.3
2015-07-18 14:25:00,18.6,18.6,18.6,55.0,9.3,3.1,7.2,202.5,0.0,0.0,1004.5,24.8,36.0,213,1.2
2015-07-18 14:30:00,18.5,18.5,18.5,55.0,9.3,3.6,8.0,225,0.0,0.0,1004.5,24.8,36.0,198,1.1
2015-07-18 14:35:00,18.5,18.5,18.5,54.0,9.0,3.6,9.4,225,0.0,0.0,1004.5,24.7,36.0,265,1.7
2015-07-18 14:40:00,18.7,18.7,18.7,54.0,9.2,2.2,7.2,202.5,0.0,0.0,1004.4,24.8,36.0,266,1.8
2015-07-18 14:45:00,18.8,18.8,18.8,55.0,9.5,1.8,4.0,202.5,0.0,0.0,1004.4,24.8,36.0,201,1.1
2015-07-18 14:50:00,18.9,18.9,18.9,54.0,9.4,2.2,5.8,225,0.0,0.0,1004.3,24.8,36.0,306,1.7
2015-07-18 14:55:00,19.1,19.1,19.1,53.0,9.3,3.1,8.0,202.5,0.0,0.0,1004.3,24.9,36.0,429,2.8
2015-07-18 15:00:00,19.2,19.2,19.2,53.0,9.4,4.0,8.5,225,0.0,0.0,1004.2,24.9,36.0,304,2.1
2015-07-18 15:05:00,19.3,19.3,19.3,53.0,9.5,2.7,5.8,225,0.0,0.0,1004.2,24.9,36.0,400,2.8
2015-07-18 15:10:00,19.4,19.4,19.4,53.0,9.6,3.1,6.7,225,0.0,0.0,1004.2,24.9,36.0,293,2.3
2015-07-18 15:15:00,19.4,19.4,19.4,53.0,9.6,3.6,8.0,225,0.0,0.0,1004.3,24.9,36.0,318,2
2015-07-18 15:20:00,19.6,19.6,19.6,53.0,9.8,3.6,9.4,202.5,0.0,0.0,1004.3,24.9,36.0,592,3.7
2015-07-18 15:25:00,19.9,19.9,19.9,51.0,9.4,2.7,6.7,270,0.0,0.0,1004.2,24.9,37.0,285,1.9
2015-07-18 15:30:00,19.5,19.5,19.5,53.0,9.7,3.1,6.3,225,0.0,0.0,1004.3,24.9,37.0,219,1.2
2015-07-18 15:35:00,19.3,19.3,19.3,53.0,9.5,3.6,8.9,225,0.0,0.0,1004.2,24.9,37.0,180,0.7
2015-07-18 15:40:00,19.2,19.2,19.2,53.0,9.4,2.7,6.7,202.5,0.0,0.0,1004.2,24.9,37.0,164,0.4
2015-07-18 15:45:00,19.2,19.2,19.2,53.0,9.4,3.6,8.5,225,0.0,0.0,1004.1,24.8,37.0,215,0.9
2015-07-18 15:50:00,19.2,19.2,19.2,53.0,9.4,4.5,8.9,225,0.0,0.0,1004.2,24.8,37.0,158,0.4
2015-07-18 15:55:00,19.1,19.1,19.1,53.0,9.2,4.0,9.4,225,0.0,0.0,1004.2,24.8,37.0,133,0.1
2015-07-18 16:00:00,19.2,19.2,19.2,53.0,9.4,3.1,6.7,202.5,0.0,0.0,1004.2,24.7,37.0,165,0.6
2015-07-18 16:05:00,19.2,19.2,19.2,53.0,9.4,2.2,5.4,202.5,0.0,0.0,1004.2,24.8,37.0,141,0.1
2015-07-18 16:10:00,19.1,19.1,19.1,53.0,9.3,2.7,5.8,202.5,0.0,0.0,1004.3,24.7,37.0,129,0
2015-07-18 16:15:00,19.1,19.1,19.1,53.0,9.3,2.2,6.7,225,0.0,0.0,1004.1,24.6,37.0,154,0.4
2015-07-18 16:20:00,19.2,19.2,19.2,53.0,9.4,2.7,6.7,225,0.0,0.0,1004.1,24.6,37.0,162,0.3
2015-07-18 16:25:00,19.1,19.1,19.1,52.0,9.0,3.1,6.7,225,0.0,0.0,1004.2,24.6,37.0,123,0
2015-07-18 16:30:00,19.1,19.1,19.1,53.0,9.3,2.7,8.5,202.5,0.0,0.0,1004.2,24.6,37.0,160,0.3
2015-07-18 16:35:00,19.1,19.1,19.1,53.0,9.3,2.2,6.3,202.5,0.0,0.0,1004.1,24.6,37.0,161,0.7
2015-07-18 16:40:00,19.1,19.1,19.1,54.0,9.6,2.2,6.7,202.5,0.0,0.0,1004.0,24.6,37.0,156,0.7
2015-07-18 16:45:00,19.2,19.2,19.2,54.0,9.6,3.1,7.2,225,0.0,0.0,1003.9,24.6,37.0,293,0.9
2015-07-18 16:50:00,19.1,19.1,19.1,54.0,9.5,4.0,9.4,202.5,0.0,0.0,1004.1,24.6,37.0,159,0.3
2015-07-18 16:55:00,18.9,18.9,18.9,54.0,9.4,3.6,8.0,202.5,0.0,0.0,1004.0,24.6,37.0,155,0.1
2015-07-18 17:00:00,18.9,18.9,18.9,54.0,9.4,4.0,8.9,225,0.0,0.0,1003.9,24.6,37.0,208,0.7
2015-07-18 17:05:00,18.8,18.8,18.8,55.0,9.6,4.0,8.5,225,0.0,0.0,1003.9,24.6,37.0,199,0.7
2015-07-18 17:10:00,19.1,19.1,19.1,54.0,9.6,2.7,5.8,225,0.0,0.0,1003.8,24.6,37.0,359,1.1
2015-07-18 17:15:00,19.5,19.5,19.5,53.0,9.7,2.7,7.2,225,0.0,0.0,1003.8,24.7,37.0,430,1
2015-07-18 17:20:00,19.4,19.4,19.4,53.0,9.6,3.1,5.8,292.5,0.0,0.0,1003.8,24.7,37.0,237,0.7
2015-07-18 17:25:00,19.6,19.6,19.6,52.0,9.4,3.1,8.5,247.5,0.0,0.0,1003.7,24.8,37.0,391,0.8
2015-07-18 17:30:00,19.7,19.7,19.7,51.0,9.2,2.2,6.3,225,0.0,0.0,1003.9,24.8,37.0,312,0.6
2015-07-18 17:35:00,19.7,19.7,19.7,51.0,9.3,2.2,5.4,225,0.0,0.0,1003.7,24.8,37.0,341,0.6
2015-07-18 17:40:00,19.8,19.8,19.8,51.0,9.3,2.7,6.3,225,0.0,0.0,1003.7,24.9,37.0,331,0.6
2015-07-18 17:45:00,19.9,19.9,19.9,51.0,9.5,1.8,4.5,202.5,0.0,0.0,1003.7,24.9,37.0,263,0.3
2015-07-18 17:50:00,19.7,19.7,19.7,50.0,8.9,3.1,6.3,225,0.0,0.0,1003.7,25.0,37.0,238,0
2015-07-18 17:55:00,19.6,19.6,19.6,51.0,9.1,2.2,5.8,247.5,0.0,0.0,1003.6,25.0,37.0,289,0
2015-07-18 18:00:00,19.6,19.6,19.6,52.0,9.4,1.8,4.5,270,0.0,0.0,1003.4,25.0,37.0,251,0
2015-07-18 18:05:00,19.5,19.5,19.5,52.0,9.4,2.7,6.3,225,0.0,0.0,1003.5,25.1,37.0,258,0
2015-07-18 18:10:00,19.6,19.6,19.6,52.0,9.4,1.8,6.3,225,0.0,0.0,1003.4,25.1,37.0,243,0
2015-07-18 18:15:00,19.5,19.5,19.5,53.0,9.7,1.8,7.2,202.5,0.0,0.0,1003.4,25.1,37.0,229,0
2015-07-18 18:20:00,19.3,19.3,19.3,53.0,9.5,3.6,5.8,225,0.0,0.0,1003.4,25.2,37.0,217,0
2015-07-18 18:25:00,19.3,19.3,19.3,54.0,9.7,2.2,4.0,225,0.0,0.0,1003.3,25.3,37.0,202,0
2015-07-18 18:30:00,19.3,19.3,19.3,54.0,9.7,1.8,5.4,202.5,0.0,0.0,1003.1,25.3,37.0,194,0
2015-07-18 18:35:00,19.2,19.2,19.2,54.0,9.7,2.2,5.8,202.5,0.0,0.0,1003.2,25.4,37.0,180,0
2015-07-18 18:40:00,19.2,19.2,19.2,54.0,9.6,2.2,6.3,225,0.0,0.0,1003.3,25.5,37.0,163,0
2015-07-18 18:45:00,19.2,19.2,19.2,54.0,9.7,1.8,5.8,202.5,0.0,0.0,1003.2,25.6,37.0,146,0
2015-07-18 18:50:00,19.0,19.0,19.0,55.0,9.7,2.7,6.3,202.5,0.0,0.0,1003.0,25.7,37.0,135,0
2015-07-18 18:55:00,18.9,18.9,18.9,56.0,10.0,1.3,3.1,202.5,0.0,0.0,1003.0,25.8,37.0,126,0
2015-07-18 19:00:00,18.8,18.8,18.8,56.0,9.9,2.2,4.9,225,0.0,0.0,1002.9,25.8,37.0,93,0
2015-07-18 19:05:00,18.7,18.7,18.7,56.0,9.7,3.1,5.4,225,0.0,0.0,1002.9,25.9,36.0,69,0
2015-07-18 19:10:00,18.6,18.6,18.6,57.0,9.9,2.7,5.8,225,0.0,0.0,1002.9,25.9,36.0,94,0
2015-07-18 19:15:00,18.6,18.6,18.6,57.0,9.9,1.3,3.6,202.5,0.0,0.0,1002.9,26.0,36.0,78,0
2015-07-18 19:20:00,18.4,18.4,18.4,58.0,10.0,2.7,5.4,202.5,0.0,0.0,1002.9,26.0,36.0,48,0
2015-07-18 19:25:00,18.3,18.3,18.3,58.0,9.9,3.1,5.4,225,0.0,0.0,1002.9,26.0,36.0,39,0
2015-07-18 19:30:00,18.3,18.3,18.3,58.0,9.9,2.2,5.4,225,0.0,0.0,1002.9,26.0,36.0,35,0
2015-07-18 19:35:00,18.2,18.2,18.2,58.0,9.8,2.7,3.6,202.5,0.0,0.0,1002.7,26.0,36.0,31,0
2015-07-18 19:40:00,18.2,18.2,18.2,58.0,9.8,2.7,4.5,202.5,0.0,0.0,1002.6,26.0,36.0,27,0
2015-07-18 19:45:00,18.2,18.2,18.2,58.0,9.8,2.2,6.3,202.5,0.0,0.0,1002.7,26.0,37.0,25,0
2015-07-18 19:50:00,18.1,18.1,18.1,59.0,10.0,2.7,4.0,225,0.0,0.0,1002.6,25.9,37.0,23,0
2015-07-18 19:55:00,18.1,18.1,18.1,58.0,9.7,2.7,4.9,202.5,0.0,0.0,1002.6,25.9,37.0,20,0
2015-07-18 20:00:00,18.1,18.1,18.1,58.0,9.7,2.7,5.8,225,0.0,0.0,1002.6,25.9,37.0,17,0
2015-07-18 20:05:00,18.1,18.1,18.1,59.0,9.9,2.2,4.9,202.5,0.0,0.0,1002.6,25.9,37.0,13,0
2015-07-18 20:10:00,18.0,18.0,18.0,59.0,9.9,1.8,4.0,202.5,0.0,0.0,1002.6,25.9,37.0,10,0
2015-07-18 20:15:00,17.9,17.9,17.9,59.0,9.8,2.7,4.5,225,0.0,0.0,1002.6,25.8,37.0,8,0
2015-07-18 20:20:00,17.8,17.8,17.8,60.0,9.9,1.8,4.5,180,0.0,0.0,1002.7,25.8,37.0,5,0
2015-07-18 20:25:00,17.7,17.7,17.7,60.0,9.8,2.2,4.9,202.5,0.0,0.0,1002.6,25.8,37.0,0,0
2015-07-18 20:30:00,17.6,17.6,17.6,60.0,9.7,2.2,4.0,202.5,0.0,0.0,1002.6,25.8,37.0,0,0
2015-07-18 20:35:00,17.6,17.6,17.6,61.0,9.9,2.7,5.4,202.5,0.0,0.0,1002.7,25.8,37.0,0,0
2015-07-18 20:40:00,17.4,17.4,17.4,61.0,9.8,2.2,3.6,225,0.0,0.0,1002.7,25.7,37.0,0,0
2015-07-18 20:45:00,17.4,17.4,17.4,61.0,9.8,1.8,4.0,202.5,0.0,0.0,1002.6,25.7,37.0,0,0
2015-07-18 20:50:00,17.3,17.3,17.3,61.0,9.7,1.8,4.9,202.5,0.0,0.0,1002.6,25.7,37.0,0,0
2015-07-18 20:55:00,17.3,17.3,17.3,61.0,9.7,1.8,3.6,202.5,0.0,0.0,1002.5,25.7,37.0,0,0
2015-07-18 21:00:00,17.2,17.2,17.2,62.0,9.9,1.3,4.0,225,0.0,0.0,1002.5,25.6,37.0,0,0
2015-07-18 21:05:00,17.2,17.2,17.2,62.0,9.8,2.2,4.5,225,0.0,0.0,1002.5,25.6,37.0,0,0
2015-07-18 21:10:00,17.1,17.1,17.1,62.0,9.8,2.2,4.5,202.5,0.0,0.0,1002.6,25.6,38.0,0,0
2015-07-18 21:15:00,17.1,17.1,17.1,62.0,9.7,2.2,4.5,225,0.0,0.0,1002.5,25.6,38.0,0,0
2015-07-18 21:20:00,17.0,17.0,17.0,62.0,9.7,1.8,4.5,202.5,0.0,0.0,1002.5,25.6,38.0,0,0
2015-07-18 21:25:00,16.9,16.9,16.9,63.0,9.8,2.2,4.0,225,0.0,0.0,1002.7,25.5,38.0,0,0
2015-07-18 21:30:00,16.9,16.9,16.9,63.0,9.8,1.8,4.5,225,0.0,0.0,1002.5,25.5,38.0,0,0
2015-07-18 21:35:00,16.8,16.8,16.8,64.0,10.0,1.3,4.5,202.5,0.0,0.0,1002.4,25.5,38.0,0,0
2015-07-18 21:40:00,16.7,16.7,16.7,64.0,9.9,1.3,3.6,202.5,0.0,0.0,1002.4,25.5,38.0,0,0
2015-07-18 21:45:00,16.7,16.7,16.7,64.0,9.8,1.8,3.6,202.5,0.0,0.0,1002.4,25.4,38.0,0,0
2015-07-18 21:50:00,16.6,16.6,16.6,65.0,9.9,1.8,3.6,225,0.0,0.0,1002.4,25.4,38.0,0,0
2015-07-18 21:55:00,16.5,16.5,16.5,65.0,9.9,0.9,3.6,202.5,0.0,0.0,1002.2,25.4,38.0,0,0
2015-07-18 22:00:00,16.4,16.4,16.4,66.0,10.1,0.4,2.7,202.5,0.0,0.0,1002.2,25.4,38.0,0,0
2015-07-18 22:05:00,16.4,16.4,16.4,66.0,10.0,0.9,3.6,225,0.0,0.0,1002.2,25.3,38.0,0,0